Location: Kalispell
(48.1967°N, 114.3128°W)
Time: 13:58:45
(UTC-07:00)

Amateur Radio Satellites - All Passes

Search period start: 27 January 2015 13:28
Search period end: 28 January 2015 13:28
Location: Kalispell, 48.1967°N, 114.3128°W

Satellite Date Start Highest point End Downlink Frequencies (MHz)
Time Altitude Azimuth
BEESAT 3 27 Jan 13:29:44 13:30:34 10° 251° (WSW) 13:31:12 437.485
CUBEBUG 1 27 Jan 13:34:02 13:37:01 17° 299° (WNW) 13:39:52 437.445
AO-7 27 Jan 13:37:54 13:44:04 24° 46° (NE) 13:50:26 29.400- 29.500
SWISSCUBE 27 Jan 13:38:31 13:42:50 33° 96° (E) 13:47:11 437.505
AIST 1 27 Jan 13:42:29 13:45:03 15° 296° (WNW) 13:47:30
SO-50 27 Jan 13:46:24 13:50:06 22° 331° (NNW) 13:53:50 436.795
VERMONT LUNAR 27 Jan 13:48:27 13:50:54 18° 195° (SSW) 13:53:21 437.305
BEESAT 27 Jan 13:54:36 13:59:10 43° 98° (E) 14:03:44 436.000
ITUPSAT 1 27 Jan 13:57:10 14:01:46 45° 98° (E) 14:06:22 437.325
Gurwin Techsat 1B 27 Jan 13:59:41 14:04:55 66° 72° (ENE) 14:10:13 435.225
HORYU 2 27 Jan 14:03:08 14:06:43 24° 64° (ENE) 14:10:23 437.375
DANDE 27 Jan 14:05:24 14:09:57 17° 47° (NE) 14:14:09 436.750
TISAT 1 27 Jan 14:11:18 14:14:47 24° 296° (WNW) 14:18:10 437.305
RS-15 27 Jan 14:34:41 14:46:02 85° 234° (SW) 14:57:52 29.354- 29.394
PCSat 27 Jan 14:34:59 14:40:20 59° 241° (WSW) 14:45:38 145.827
PHONESAT 2.4 27 Jan 14:35:25 14:37:53 17° 197° (SSW) 14:40:19 2401.200-2431.200
GONETS M04 27 Jan 14:39:22 14:46:59 35° 276° (W) 14:54:26
CUSAT 1 27 Jan 14:44:48 14:50:51 31° 60° (ENE) 14:55:44 437.405
Oscar 19 27 Jan 14:45:07 14:48:24 16° 273° (W) 14:51:29 437.125/150
STARS 27 Jan 14:46:39 14:50:02 21° 91° (E) 14:53:30 437.465
KKS-1 27 Jan 14:48:05 14:52:08 32° 95° (E) 14:56:11 437.445
ITAMSAT 1 27 Jan 14:54:51 14:59:28 32° 265° (W) 15:04:05 435.822/435.867
SWISSCUBE 27 Jan 15:16:25 15:20:44 34° 294° (WNW) 15:24:59 437.505
AO-7 27 Jan 15:27:27 15:35:48 80° 68° (ENE) 15:44:13 29.400- 29.500
SO-50 27 Jan 15:30:43 15:32:26 12° 355° (N) 15:34:07 436.795
BEESAT 27 Jan 15:32:51 15:36:52 27° 296° (WNW) 15:40:48 436.000
ITUPSAT 1 27 Jan 15:35:30 15:39:29 26° 297° (WNW) 15:43:23 437.325
HORYU 2 27 Jan 15:38:53 15:43:12 43° 262° (W) 15:47:32 437.375
JAS-2 27 Jan 15:39:00 15:43:55 37° 66° (ENE) 15:48:42 435.910
Gurwin Techsat 1B 27 Jan 15:41:32 15:45:27 20° 271° (W) 15:49:14 435.225
M-CUBED/EXP-1 PRIME 27 Jan 15:44:55 15:47:43 25° 102° (ESE) 15:50:35 437.505
DANDE 27 Jan 15:47:51 15:55:18 73° 75° (ENE) 16:00:53 436.750
O/OREOS (USA 219) 27 Jan 15:55:39 15:56:55 11° 98° (E) 15:58:26 437.305
MOZHAYETS 4 27 Jan 16:14:37 16:16:28 12° 85° (E) 16:18:32
AUBIESAT-1 27 Jan 16:19:26 16:22:43 61° 107° (ESE) 16:26:03 437.475
STARS 27 Jan 16:22:30 16:26:47 46° 291° (WNW) 16:31:02 437.465
KKS-1 27 Jan 16:24:46 16:28:48 32° 294° (WNW) 16:32:44 437.445
CUSAT 1 27 Jan 16:27:46 16:34:24 51° 268° (W) 16:39:23 437.405
Cubesat XI-IV 27 Jan 16:43:31 16:47:41 24° 61° (ENE) 16:51:58 437.490
RS-15 27 Jan 16:48:13 16:57:08 26° 256° (WSW) 17:05:52 29.354- 29.394
CUTE-I 27 Jan 17:03:24 17:08:06 33° 64° (ENE) 17:12:53 437.470
SO-50 27 Jan 17:12:10 17:14:59 15° 19° (NNE) 17:17:53 436.795
M-CUBED/EXP-1 PRIME 27 Jan 17:20:02 17:22:43 22° 299° (WNW) 17:25:22 437.505
AO-7 27 Jan 17:22:42 17:29:35 27° 270° (W) 17:36:16 29.400- 29.500
JAS-2 27 Jan 17:24:13 17:29:11 33° 264° (W) 17:33:52 435.910
O/OREOS (USA 219) 27 Jan 17:31:11 17:35:41 89° 307° (NW) 17:40:15 437.305
DANDE 27 Jan 17:32:29 17:37:47 22° 280° (W) 17:42:01 436.750
MOZHAYETS 4 27 Jan 17:49:49 17:54:25 82° 285° (WNW) 17:58:59
AUBIESAT-1 27 Jan 17:56:05 17:57:19 12° 305° (NW) 17:58:26 437.475
CUBESAT XI-V 27 Jan 18:01:34 18:03:39 13° 85° (E) 18:05:57 437.345
Cubesat XI-IV 27 Jan 18:22:12 18:27:27 59° 259° (W) 18:32:45 437.490
CUTE-I 27 Jan 18:43:07 18:48:08 40° 263° (W) 18:53:09 437.470
PRISM 27 Jan 18:48:49 18:52:48 45° 99° (E) 18:56:49 437.425
SO-50 27 Jan 18:52:08 18:56:48 42° 42° (NE) 19:01:31 436.795
STRAND 1 27 Jan 19:00:43 19:05:21 33° 95° (E) 19:10:01 437.568
CANX-2 27 Jan 19:10:40 19:13:03 15° 61° (ENE) 19:15:36 2200.000
O/OREOS (USA 219) 27 Jan 19:13:05 19:15:52 15° 317° (NW) 19:18:33 437.305
HO-68 27 Jan 19:17:29 19:23:49 37° 59° (ENE) 19:30:16 435.675
MOZHAYETS 4 27 Jan 19:29:04 19:31:00 12° 303° (WNW) 19:32:43
AAUSAT CUBESAT 2 27 Jan 19:29:45 19:31:48 14° 60° (ENE) 19:34:00 437.432
CUTE 1.7 + AOD 2 27 Jan 19:34:01 19:37:20 22° 64° (ENE) 19:40:43 437.475
CUBESAT XI-V 27 Jan 19:37:05 19:41:48 82° 286° (WNW) 19:46:30 437.345
YUBILEINY 27 Jan 19:45:15 19:53:23 48° 89° (E) 20:01:39 435.215
BRITE-PL 27 Jan 19:46:39 19:51:28 45° 68° (ENE) 19:56:41 437.365/2234.400
GOMX 1 27 Jan 19:51:11 19:55:49 37° 66° (ENE) 20:00:46 467.674
CUBEBUG 2 27 Jan 20:01:03 20:03:16 14° 58° (ENE) 20:05:40 437.445
UKube-1 27 Jan 20:05:51 20:07:13 12° 57° (ENE) 20:08:46 .
SEEDS 27 Jan 20:06:21 20:10:18 38° 70° (ENE) 20:14:17 437.485
DOVE 4 27 Jan 20:11:28 20:16:11 41° 68° (ENE) 20:21:08 437.250
CINEMA 3 27 Jan 20:12:00 20:16:02 26° 63° (ENE) 20:20:13 145.822/145.860
ZACube-1 27 Jan 20:16:25 20:18:26 13° 58° (ENE) 20:20:36 437.345
DX 1 27 Jan 20:22:59 20:25:45 17° 61° (ENE) 20:28:39 434.975-435.025
PRISM 27 Jan 20:24:58 20:28:05 20° 297° (WNW) 20:31:08 437.425
FUNcube-1 27 Jan 20:28:07 20:30:51 16° 60° (ENE) 20:33:45 145.935
SO-50 27 Jan 20:32:50 20:37:22 37° 241° (WSW) 20:41:52 436.795
HUMSAT D 27 Jan 20:34:23 20:34:51 10° 57° (ENE) 20:35:32 437.325/437.525
COMPASS 1 27 Jan 20:35:08 20:39:19 63° 73° (ENE) 20:43:30 437.405
STRAND 1 27 Jan 20:39:52 20:44:37 38° 294° (WNW) 20:49:20 437.568
AISAT 27 Jan 20:41:06 20:42:21 11° 56° (NE) 20:43:49 437.250
UWE-3 27 Jan 20:42:50 20:46:38 25° 64° (ENE) 20:50:32 435.000/436.395/437.385
CANX-2 27 Jan 20:44:15 20:48:33 71° 258° (WSW) 20:52:51 2200.000
AAUSAT CUBESAT 2 27 Jan 21:02:44 21:06:58 77° 258° (WSW) 21:11:12 437.432
Oscar 11 27 Jan 21:04:02 21:08:18 58° 72° (ENE) 21:12:36 145.826/435.025
HO-68 27 Jan 21:04:21 21:11:21 55° 259° (W) 21:18:22 435.675
DELFI C3 27 Jan 21:07:44 21:11:41 50° 72° (ENE) 21:15:41 145.870
VELOX 1 27 Jan 21:08:13 21:11:16 19° 61° (ENE) 21:14:26 145.980
CUTE 1.7 + AOD 2 27 Jan 21:08:57 21:13:04 43° 262° (W) 21:17:10 437.475
CUBESAT XI-V 27 Jan 21:16:29 21:18:36 13° 303° (WNW) 21:20:32 437.345
CUBEBUG 1 27 Jan 21:23:28 21:24:57 12° 57° (ENE) 21:26:37 437.445
BRITE-PL 27 Jan 21:25:46 21:30:12 29° 269° (W) 21:34:53 437.365/2234.400
GOMX 1 27 Jan 21:29:16 21:33:58 36° 266° (W) 21:38:54 467.674
CUBEBUG 2 27 Jan 21:34:31 21:39:17 83° 74° (ENE) 21:44:08 437.445
UKube-1 27 Jan 21:38:23 21:42:43 81° 74° (ENE) 21:47:06 .
YUBILEINY 27 Jan 21:42:06 21:50:22 45° 291° (WNW) 21:58:38 435.215
SEEDS 27 Jan 21:42:48 21:46:18 24° 268° (W) 21:49:44 437.485
CINEMA 3 27 Jan 21:48:11 21:52:59 49° 262° (W) 21:57:54 145.822/145.860
DOVE 4 27 Jan 21:49:32 21:54:03 32° 267° (W) 21:58:44 437.250
ZACube-1 27 Jan 21:49:32 21:54:09 84° 75° (ENE) 21:58:48 437.345
DX 1 27 Jan 21:57:16 22:01:36 64° 258° (WSW) 22:05:58 434.975-435.025
50 SAT 27 Jan 21:57:20 22:01:16 44° 71° (ENE) 22:05:16 437.505
FUNcube-1 27 Jan 22:02:06 22:06:42 75° 257° (WSW) 22:11:21 145.935
HUMSAT D 27 Jan 22:05:35 22:09:55 72° 74° (ENE) 22:14:17 437.325/437.525
AIST 1 27 Jan 22:06:29 22:09:59 23° 69° (ENE) 22:13:32
ANTELSAT 27 Jan 22:10:17 22:12:40 14° 87° (E) 22:15:12 437.575/2403.000
ESTCUBE 1 27 Jan 22:11:56 22:15:58 34° 67° (ENE) 22:20:03 437.505/2401.250
COMPASS 1 27 Jan 22:13:05 22:15:31 14° 272° (W) 22:17:48 437.405
AISAT 27 Jan 22:13:50 22:18:16 76° 74° (ENE) 22:22:47 437.250
UWE-3 27 Jan 22:18:28 22:22:58 45° 262° (W) 22:27:31 435.000/436.395/437.385
TIGRISAT 27 Jan 22:18:39 22:21:33 17° 88° (E) 22:24:31 435.000
Oscar 11 27 Jan 22:42:04 22:44:55 17° 271° (W) 22:47:39 145.826/435.025
VELOX 1 27 Jan 22:43:07 22:47:29 58° 259° (W) 22:51:54 145.980
DELFI C3 27 Jan 22:44:33 22:47:18 17° 270° (W) 22:49:54 145.870
NANOSAT C BR1 27 Jan 22:47:48 22:50:59 20° 91° (E) 22:54:14 145.865
SPROUT 27 Jan 22:49:25 22:52:36 21° 63° (ENE) 22:55:54 437.525
CUBEBUG 1 27 Jan 22:56:19 23:00:41 83° 73° (ENE) 23:05:05 437.445
QB50P2 27 Jan 23:00:49 23:04:31 27° 94° (E) 23:08:15 145.880/145.840
UNISAT 6 27 Jan 23:09:42 23:14:09 53° 100° (E) 23:18:27 437.425
QB50P1 27 Jan 23:10:36 23:14:31 33° 96° (E) 23:18:27 145.935-145.965
CUBEBUG 2 27 Jan 23:14:14 23:16:43 14° 275° (W) 23:18:58 437.445
UKube-1 27 Jan 23:17:51 23:19:35 12° 274° (W) 23:21:04 .
ISS 27 Jan 23:22:55 23:25:58 36° 146° (SSE) 23:29:03 145.825
POLYITAN 1 27 Jan 23:24:08 23:28:20 46° 99° (E) 23:32:30 437.675
ZACube-1 27 Jan 23:29:08 23:31:15 13° 275° (W) 23:33:09 437.345
BEESAT 27 Jan 23:30:32 23:32:16 12° 55° (NE) 23:34:11 436.000
BUGSAT 1 27 Jan 23:30:36 23:34:41 42° 98° (E) 23:38:46 437.445
TISAT 1 27 Jan 23:30:56 23:35:02 49° 71° (ENE) 23:39:12 437.305
ITUPSAT 1 27 Jan 23:33:13 23:35:07 13° 56° (NE) 23:37:13 437.325
50 SAT 27 Jan 23:33:34 23:36:39 19° 269° (W) 23:39:40 437.505
AIST 1 27 Jan 23:43:46 23:47:49 38° 268° (W) 23:51:50
HUMSAT D 27 Jan 23:44:00 23:46:18 14° 273° (W) 23:48:25 437.325/437.525
POPSAT HIP 1 27 Jan 23:44:58 23:49:19 75° 103° (ESE) 23:53:37 437.405
ANTELSAT 27 Jan 23:45:34 23:50:05 69° 287° (WNW) 23:54:28 437.575/2403.000
YUBILEINY 27 Jan 23:47:35 23:50:19 11° 319° (NW) 23:52:34 435.215
DUCHIFAT 1 27 Jan 23:48:34 23:52:55 81° 103° (ESE) 23:57:13 145.980
ESTCUBE 1 27 Jan 23:48:57 23:52:54 29° 265° (W) 23:56:50 437.505/2401.250
AISAT 27 Jan 23:53:16 23:55:32 13° 273° (W) 23:57:37 437.250
TIGRISAT 27 Jan 23:54:19 23:58:47 58° 288° (WNW) 00:03:06 435.000
GONETS M04 27 Jan 23:57:12 00:00:28 13° 72° (ENE) 00:04:19
NANOSAT C BR1 28 Jan 00:22:59 00:27:08 46° 290° (WNW) 00:31:14 145.865
SPROUT 28 Jan 00:24:15 00:28:26 48° 261° (W) 00:32:40 437.525
CUBEBUG 1 28 Jan 00:36:10 00:37:47 11° 275° (W) 00:39:10 437.445
QB50P2 28 Jan 00:36:35 00:40:30 34° 293° (WNW) 00:44:23 145.880/145.840
QB50P1 28 Jan 00:46:37 00:50:21 28° 294° (WNW) 00:54:01 145.935-145.965
UNISAT 6 28 Jan 00:47:16 00:50:36 20° 298° (WNW) 00:53:47 437.425
SWISSCUBE 28 Jan 00:48:37 00:53:16 57° 71° (ENE) 00:57:59 437.505
ISS 28 Jan 00:59:08 01:02:24 60° 345° (NNW) 01:05:41 145.825
POLYITAN 1 28 Jan 01:00:41 01:04:02 22° 296° (WNW) 01:07:16 437.675
BEESAT 28 Jan 01:04:38 01:09:23 75° 73° (ENE) 01:14:10 436.000
BUGSAT 1 28 Jan 01:06:34 01:09:59 23° 296° (WNW) 01:13:20 437.445
ITUPSAT 1 28 Jan 01:07:33 01:12:19 78° 73° (ENE) 01:17:06 437.325
TISAT 1 28 Jan 01:08:09 01:11:12 18° 270° (W) 01:14:10 437.305
Oscar 19 28 Jan 01:11:53 01:15:40 21° 90° (E) 01:19:35 437.125/150
POPSAT HIP 1 28 Jan 01:22:15 01:24:43 15° 300° (WNW) 01:27:02 437.405
ANTELSAT 28 Jan 01:25:26 01:26:06 10° 305° (NW) 01:26:31 437.575/2403.000
DUCHIFAT 1 28 Jan 01:25:59 01:28:14 14° 301° (WNW) 01:30:19 145.980
ITAMSAT 1 28 Jan 01:27:37 01:27:43 10° 82° (E) 01:28:11 435.822/435.867
AUBIESAT-1 28 Jan 01:38:09 01:40:47 18° 59° (ENE) 01:43:24 437.475
GONETS M04 28 Jan 01:47:05 01:55:38 62° 92° (E) 02:04:12
STARS 28 Jan 01:47:08 01:51:01 30° 66° (ENE) 01:54:57 437.465
KKS-1 28 Jan 01:49:43 01:54:00 46° 69° (ENE) 01:58:20 437.445
O/OREOS (USA 219) 28 Jan 01:58:25 02:02:49 43° 57° (ENE) 02:07:13 437.305
Gurwin Techsat 1B 28 Jan 02:13:01 02:16:47 20° 89° (E) 02:20:41 435.225
SWISSCUBE 28 Jan 02:28:07 02:31:35 19° 270° (W) 02:34:56 437.505
ISS 28 Jan 02:36:02 02:39:13 45° 4° (N) 02:42:26 145.825
M-CUBED/EXP-1 PRIME 28 Jan 02:37:02 02:41:04 81° 70° (ENE) 02:44:48 437.505
BEESAT 28 Jan 02:45:06 02:47:53 15° 273° (W) 02:50:29 436.000
ITUPSAT 1 28 Jan 02:48:14 02:50:53 14° 273° (W) 02:53:20 437.325
Oscar 19 28 Jan 02:50:24 02:55:31 60° 289° (WNW) 03:00:33 437.125/150
AIST 2 28 Jan 02:58:47 03:01:08 15° 112° (ESE) 03:03:38 435.215
ITAMSAT 1 28 Jan 03:03:06 03:08:20 70° 102° (ESE) 03:13:34 435.822/435.867
BEESAT 2 28 Jan 03:08:37 03:12:26 38° 120° (ESE) 03:16:21 435.950
AUBIESAT-1 28 Jan 03:11:40 03:15:33 46° 254° (WSW) 03:19:08 437.475
MOZHAYETS 4 28 Jan 03:19:48 03:23:00 20° 62° (ENE) 03:26:20
DANDE 28 Jan 03:21:14 03:26:30 19° 78° (ENE) 03:32:16 436.750
STARS 28 Jan 03:23:25 03:27:28 33° 264° (W) 03:31:31 437.465
BEESAT 3 28 Jan 03:23:56 03:27:58 59° 124° (ESE) 03:32:06 437.485
AO-7 28 Jan 03:26:12 03:31:50 20° 86° (E) 03:37:50 29.400- 29.500
HORYU 2 28 Jan 03:26:55 03:30:43 27° 94° (E) 03:34:33 437.375
KKS-1 28 Jan 03:27:22 03:30:55 22° 268° (W) 03:34:23 437.445
O/OREOS (USA 219) 28 Jan 03:38:15 03:42:04 25° 256° (WSW) 03:45:47 437.305
GONETS M04 28 Jan 03:45:07 03:53:05 36° 296° (WNW) 04:00:54
Gurwin Techsat 1B 28 Jan 03:52:02 03:57:19 66° 288° (WNW) 04:02:35 435.225
CUSAT 1 28 Jan 03:55:14 04:02:25 36° 87° (E) 04:09:50 437.405
ISS 28 Jan 04:12:37 04:15:56 81° 207° (SSW) 04:19:15 145.825
M-CUBED/EXP-1 PRIME 28 Jan 04:15:59 04:16:32 10° 266° (W) 04:16:52 437.505
JAS-2 28 Jan 04:27:36 04:32:01 24° 92° (E) 04:36:56 435.910
Oscar 19 28 Jan 04:32:31 04:33:55 11° 308° (NW) 04:35:05 437.125/150
AIST 2 28 Jan 04:34:58 04:39:15 77° 309° (NW) 04:43:35 435.215
ITAMSAT 1 28 Jan 04:43:33 04:47:23 21° 301° (WNW) 04:51:06 435.822/435.867
STRAND 1 28 Jan 04:44:51 04:46:46 12° 54° (NE) 04:48:55 437.568
BEESAT 2 28 Jan 04:46:56 04:50:44 32° 319° (NW) 04:54:33 435.950
MOZHAYETS 4 28 Jan 04:55:22 04:59:54 58° 260° (W) 05:04:27
DANDE 28 Jan 05:00:32 05:08:47 74° 98° (E) 05:17:26 436.750
BEESAT 3 28 Jan 05:03:01 05:06:27 24° 324° (NW) 05:09:53 437.485
RS-15 28 Jan 05:03:09 05:12:59 43° 111° (ESE) 05:23:05 29.354- 29.394
HORYU 2 28 Jan 05:03:23 05:07:29 36° 292° (WNW) 05:11:32 437.375
CUBESAT XI-V 28 Jan 05:08:20 05:11:38 20° 62° (ENE) 05:15:03 437.345
AO-7 28 Jan 05:17:38 05:26:03 84° 108° (ESE) 05:34:23 29.400- 29.500
PCSat 28 Jan 05:19:49 05:25:09 62° 119° (ESE) 05:30:32 145.827
Gurwin Techsat 1B 28 Jan 05:34:11 05:36:26 12° 307° (NW) 05:38:27 435.225
CUSAT 1 28 Jan 05:36:51 05:45:07 66° 286° (WNW) 05:53:26 437.405
PRISM 28 Jan 05:42:49 05:46:50 55° 71° (ENE) 05:50:53 437.425
ISS 28 Jan 05:49:49 05:52:04 17° 222° (SW) 05:54:15 145.825
YUBILEINY 28 Jan 05:50:28 05:57:51 30° 61° (ENE) 06:05:25 435.215
JAS-2 28 Jan 06:12:08 06:17:32 59° 289° (WNW) 06:23:31 435.910
AIST 2 28 Jan 06:15:35 06:18:35 18° 331° (NNW) 06:21:34 435.215
STRAND 1 28 Jan 06:20:06 06:25:09 69° 71° (ENE) 06:30:16 437.568
BEESAT 2 28 Jan 06:29:02 06:30:13 11° 342° (NNW) 06:31:21 435.950
Cubesat XI-IV 28 Jan 06:35:44 06:40:50 42° 97° (E) 06:45:58 437.490
CUBESAT XI-V 28 Jan 06:44:13 06:48:45 56° 261° (W) 06:53:19 437.345
DANDE 28 Jan 06:45:28 06:53:04 34° 299° (WNW) 07:00:37 436.750
CUTE-I 28 Jan 06:56:00 07:01:20 62° 101° (E) 07:06:41 437.470
PCSat 28 Jan 07:04:12 07:08:59 30° 320° (NW) 07:13:45 145.827
AO-7 28 Jan 07:11:12 07:18:05 29° 310° (NW) 07:24:47 29.400- 29.500
RS-15 28 Jan 07:14:01 07:24:54 68° 316° (NW) 07:36:01 29.354- 29.394
PRISM 28 Jan 07:20:12 07:22:46 16° 270° (W) 07:25:13 437.425
CUSAT 1 28 Jan 07:23:58 07:29:54 20° 309° (NW) 07:35:23 437.405
YUBILEINY 28 Jan 07:46:54 07:55:40 75° 265° (W) 08:04:25 435.215
BRITE-PL 28 Jan 07:49:31 07:52:06 13° 82° (E) 07:54:55 437.365/2234.400
JAS-2 28 Jan 08:00:10 08:01:50 11° 307° (NW) 08:03:15 435.910
STRAND 1 28 Jan 08:01:26 08:04:57 18° 272° (W) 08:08:18 437.568
Cubesat XI-IV 28 Jan 08:16:05 08:20:52 32° 296° (WNW) 08:25:34 437.490
CANX-2 28 Jan 08:27:23 08:29:55 16° 88° (E) 08:32:36 2200.000
HO-68 28 Jan 08:28:23 08:34:00 25° 90° (E) 08:39:49 435.675
CUTE-I 28 Jan 08:36:49 08:41:04 24° 300° (WNW) 08:45:12 437.470
UNISAT 6 28 Jan 08:38:50 08:40:29 12° 57° (ENE) 08:42:20 437.425
AAUSAT CUBESAT 2 28 Jan 08:44:10 08:46:11 13° 87° (E) 08:48:22 437.432
CUTE 1.7 + AOD 2 28 Jan 08:51:02 08:54:32 25° 93° (E) 08:58:03 437.475
PCSat 28 Jan 08:52:07 08:54:16 12° 345° (NNW) 08:56:20 145.827
POPSAT HIP 1 28 Jan 09:08:36 09:10:17 12° 58° (ENE) 09:12:08 437.405
DUCHIFAT 1 28 Jan 09:11:42 09:13:35 13° 59° (ENE) 09:15:38 145.980
ANTELSAT 28 Jan 09:12:25 09:16:03 23° 63° (ENE) 09:19:44 437.575/2403.000
TIGRISAT 28 Jan 09:20:33 09:24:25 26° 64° (ENE) 09:28:20 435.000
SEEDS 28 Jan 09:22:56 09:26:59 44° 98° (E) 09:31:00 437.485
CUBEBUG 2 28 Jan 09:24:04 09:26:30 14° 86° (E) 09:29:05 437.445
UKube-1 28 Jan 09:25:21 09:26:06 10° 85° (E) 09:27:06 .
BRITE-PL 28 Jan 09:25:53 09:31:39 80° 102° (ESE) 09:37:13 437.365/2234.400
GOMX 1 28 Jan 09:27:06 09:32:34 61° 99° (E) 09:37:47 467.674
RS-15 28 Jan 09:29:45 09:39:40 36° 347° (NNW) 09:49:48 29.354- 29.394
ZACube-1 28 Jan 09:36:48 09:38:50 13° 85° (E) 09:41:04 437.345
AIST 2 28 Jan 09:37:58 09:39:31 12° 18° (NNE) 09:41:07 435.215
CINEMA 3 28 Jan 09:40:02 09:44:31 34° 94° (E) 09:48:50 145.822/145.860
DX 1 28 Jan 09:43:04 09:45:57 17° 90° (E) 09:48:57 434.975-435.025
NANOSAT C BR1 28 Jan 09:44:09 09:47:38 25° 65° (ENE) 09:51:12 145.865
DOVE 4 28 Jan 09:44:37 09:49:54 64° 101° (E) 09:54:55 437.250
YUBILEINY 28 Jan 09:45:47 09:51:07 17° 285° (WNW) 09:56:00 435.215
BEESAT 2 28 Jan 09:47:28 09:50:17 17° 29° (NNE) 09:53:10 435.950
FUNcube-1 28 Jan 09:48:31 09:51:22 17° 88° (E) 09:54:19 145.935
COMPASS 1 28 Jan 09:51:01 09:55:12 74° 102° (ESE) 09:59:22 437.405
VERMONT LUNAR 28 Jan 09:52:04 09:53:44 13° 159° (SSE) 09:55:28 437.305
QB50P2 28 Jan 09:57:24 10:01:15 34° 68° (ENE) 10:05:10 145.880/145.840
CANX-2 28 Jan 10:02:08 10:06:19 57° 288° (WNW) 10:10:26 2200.000
BEESAT 3 28 Jan 10:02:34 10:05:51 22° 34° (NE) 10:09:09 437.485
AISAT 28 Jan 10:03:31 10:04:58 12° 85° (E) 10:06:40 437.250
UWE-3 28 Jan 10:05:22 10:09:22 30° 94° (E) 10:13:17 435.000/436.395/437.385
QB50P1 28 Jan 10:06:56 10:10:56 41° 69° (ENE) 10:15:01 145.935-145.965
UNISAT 6 28 Jan 10:11:51 10:16:34 75° 75° (ENE) 10:21:16 437.425
HO-68 28 Jan 10:15:20 10:22:30 74° 290° (WNW) 10:29:38 435.675
AAUSAT CUBESAT 2 28 Jan 10:18:14 10:22:23 65° 286° (WNW) 10:26:29 437.432
DELFI C3 28 Jan 10:19:33 10:23:32 53° 100° (E) 10:27:29 145.870
POLYITAN 1 28 Jan 10:20:44 10:24:57 57° 72° (ENE) 10:29:14 437.675
Oscar 11 28 Jan 10:23:52 10:28:12 72° 102° (ESE) 10:32:30 145.826/435.025
BUGSAT 1 28 Jan 10:24:21 10:28:17 47° 71° (ENE) 10:32:20 437.445
CUTE 1.7 + AOD 2 28 Jan 10:26:41 10:30:36 36° 291° (WNW) 10:34:26 437.475
VELOX 1 28 Jan 10:30:52 10:34:16 21° 91° (E) 10:37:43 145.980
PCSat 28 Jan 10:38:36 10:40:14 11° 11° (NNE) 10:41:56 145.827
POPSAT HIP 1 28 Jan 10:41:16 10:45:35 89° 54° (NE) 10:49:55 437.405
AIST 1 28 Jan 10:42:44 10:43:49 11° 83° (E) 10:45:09
CUBEBUG 1 28 Jan 10:43:37 10:45:26 12° 86° (E) 10:47:27 437.445
PHONESAT 2.4 28 Jan 10:43:56 10:46:13 16° 162° (SSE) 10:48:33 2401.200-2431.200
DUCHIFAT 1 28 Jan 10:44:35 10:48:52 85° 256° (WSW) 10:53:12 145.980
ANTELSAT 28 Jan 10:47:57 10:52:34 51° 261° (W) 10:57:10 437.575/2403.000
SO-50 28 Jan 10:50:47 10:54:49 32° 117° (ESE) 10:59:02 436.795
TIGRISAT 28 Jan 10:56:28 11:00:59 44° 262° (W) 11:05:29 435.000
UKube-1 28 Jan 10:58:37 11:03:02 90° 98° (E) 11:07:24 .
CUBEBUG 2 28 Jan 10:59:13 11:03:53 72° 286° (WNW) 11:08:21 437.445
SEEDS 28 Jan 10:59:22 11:02:35 21° 296° (WNW) 11:05:41 437.485
BRITE-PL 28 Jan 11:05:22 11:09:33 21° 301° (WNW) 11:13:31 437.365/2234.400
GOMX 1 28 Jan 11:05:52 11:10:16 25° 299° (WNW) 11:14:28 467.674
50 SAT 28 Jan 11:08:16 11:12:13 44° 98° (E) 11:16:05 437.505
ZACube-1 28 Jan 11:11:23 11:15:53 75° 286° (WNW) 11:20:15 437.345
AIST 2 28 Jan 11:15:26 11:19:24 35° 41° (NE) 11:23:20 435.215
CINEMA 3 28 Jan 11:17:16 11:21:43 34° 294° (WNW) 11:25:56 145.822/145.860
DX 1 28 Jan 11:18:16 11:22:37 57° 289° (WNW) 11:26:55 434.975-435.025
NANOSAT C BR1 28 Jan 11:19:23 11:23:23 38° 263° (W) 11:27:24 145.865
HUMSAT D 28 Jan 11:22:22 11:26:40 84° 100° (E) 11:30:53 437.325/437.525
DOVE 4 28 Jan 11:23:09 11:27:12 22° 299° (WNW) 11:31:02 437.250
FUNcube-1 28 Jan 11:23:46 11:28:11 57° 288° (WNW) 11:32:27 145.935
BEESAT 2 28 Jan 11:25:00 11:29:13 78° 50° (NE) 11:33:23 435.950
COMPASS 1 28 Jan 11:28:14 11:30:26 14° 300° (WNW) 11:32:30 437.405
VERMONT LUNAR 28 Jan 11:28:21 11:31:10 23° 175° (S) 11:34:00 437.305
QB50P2 28 Jan 11:33:31 11:37:15 27° 266° (W) 11:40:56 145.880/145.840
ESTCUBE 1 28 Jan 11:37:26 11:41:46 44° 98° (E) 11:46:07 437.505/2401.250
AISAT 28 Jan 11:37:48 11:42:21 87° 283° (WNW) 11:46:52 437.250
BEESAT 3 28 Jan 11:40:16 11:44:26 70° 235° (SW) 11:48:32 437.485
UWE-3 28 Jan 11:41:49 11:45:57 34° 293° (WNW) 11:49:56 435.000/436.395/437.385
QB50P1 28 Jan 11:43:36 11:47:02 23° 268° (W) 11:50:25 145.935-145.965
RS-15 28 Jan 11:45:26 11:55:40 39° 20° (NNE) 12:06:20 29.354- 29.394
UNISAT 6 28 Jan 11:51:12 11:53:58 15° 273° (W) 11:56:31 437.425
GONETS M04 28 Jan 11:52:47 12:00:40 37° 65° (ENE) 12:08:38
DELFI C3 28 Jan 11:55:43 11:58:27 17° 297° (WNW) 12:01:02 145.870
POLYITAN 1 28 Jan 11:58:28 12:01:20 17° 271° (W) 12:04:04 437.675
BUGSAT 1 28 Jan 12:01:09 12:04:07 18° 270° (W) 12:07:00 437.445
Oscar 11 28 Jan 12:01:23 12:03:54 15° 300° (WNW) 12:06:17 145.826/435.025
HO-68 28 Jan 12:04:21 12:09:13 19° 311° (NW) 12:13:51 435.675
VELOX 1 28 Jan 12:06:47 12:11:08 48° 290° (WNW) 12:15:27 145.980
SPROUT 28 Jan 12:07:50 12:11:19 23° 92° (E) 12:14:50 437.525
AIST 1 28 Jan 12:16:39 12:20:54 79° 280° (W) 12:25:12
CUBEBUG 1 28 Jan 12:18:00 12:22:29 80° 285° (WNW) 12:26:56 437.445
PHONESAT 2.4 28 Jan 12:21:09 12:24:08 24° 179° (S) 12:27:09 2401.200-2431.200
PCSat 28 Jan 12:21:11 12:25:40 26° 36° (NE) 12:30:12 145.827
POPSAT HIP 1 28 Jan 12:21:22 12:22:14 10° 275° (W) 12:22:52 437.405
SO-50 28 Jan 12:30:47 12:35:16 44° 317° (NW) 12:39:52 436.795
Oscar 19 28 Jan 12:31:54 12:36:47 44° 68° (ENE) 12:41:44 437.125/150
UKube-1 28 Jan 12:36:34 12:38:36 13° 302° (WNW) 12:40:28 .
CUBEBUG 2 28 Jan 12:38:22 12:39:46 11° 305° (NW) 12:40:58 437.445
AO-7 28 Jan 12:42:05 12:45:33 14° 33° (NNE) 12:49:20 29.400- 29.500
50 SAT 28 Jan 12:44:03 12:47:05 20° 296° (WNW) 12:50:00 437.505
ITAMSAT 1 28 Jan 12:46:48 12:50:53 25° 61° (ENE) 12:55:06 435.822/435.867
SWISSCUBE 28 Jan 12:47:48 12:49:06 11° 84° (E) 12:50:41 437.505
TISAT 1 28 Jan 12:47:52 12:52:08 55° 101° (E) 12:56:20 437.305
ZACube-1 28 Jan 12:50:14 12:51:30 11° 304° (NW) 12:52:34 437.345
AIST 2 28 Jan 12:54:05 12:58:03 36° 241° (WSW) 13:01:57 435.215
HUMSAT D 28 Jan 12:59:52 13:01:54 13° 301° (WNW) 13:03:45 437.325/437.525
BEESAT 28 Jan 13:02:46 13:05:21 15° 87° (E) 13:08:07 436.000
BEESAT 2 28 Jan 13:04:39 13:06:56 14° 249° (WSW) 13:09:03 435.950
ITUPSAT 1 28 Jan 13:05:54 13:08:40 16° 88° (E) 13:11:37 437.325
VERMONT LUNAR 28 Jan 13:06:06 13:08:41 19° 192° (SSW) 13:11:17 437.305
ESTCUBE 1 28 Jan 13:14:48 13:18:28 24° 296° (WNW) 13:22:03 437.505/2401.250
AISAT 28 Jan 13:16:12 13:18:21 13° 303° (WNW) 13:20:19 437.250
